RH
70 68 62 56 44 37 29 26 24 26 31 46 83 97 62 64 63 78 84 73 48 40 31 29 28 26 30 29 23 20 20 19 21 20 18 18 19 25 28 28 35 38 38 32 20 17 22
74 71 83 69 57 44 36 29 26 27 29 32 39 46 46 58 60 70 83 99 66 46 38 31 30 25 25 25 27 27 22 22 21 17 17 17 20 20 21 22 25 26 27 32 34 32 26
99 82 52 95 86 57 44 37 29 28 28 30 32 34 40 51 57 57 57 51 100 75 44 30 26 27 26 22 24 22 24 25 23 22 24 20 18 16 20 20 19 20 22 24 24 30 36
54 51 45 93 100 72 63 52 35 30 30 31 32 37 42 57 62 47 44 40 44 97 80 43 34 25 22 24 24 21 19 16 21 24 21 23 24 22 19 21 21 21 17 18 22 24 24
92 53 37 51 87 89 77 71 62 37 31 32 34 36 38 44 42 42 45 42 43 51 100 64 46 36 27 22 19 19 20 19 19 19 17 22 23 22 27 26 25 26 26 28 20 20 24
100 99 65 44 53 83 70 73 72 65 46 36 34 36 37 37 39 44 48 51 53 47 93 77 60 42 36 28 25 25 20 23 23 18 19 21 22 22 24 34 42 41 40 37 37 35 37
100 100 100 87 50 46 73 68 69 69 72 69 61 49 47 46 51 53 54 54 58 63 76 99 72 46 40 37 34 31 28 24 23 24 24 27 25 30 28 29 34 39 58 62 47 43 44
100 98 100 100 100 81 52 57 54 60 69 69 67 68 65 61 61 58 54 64 85 87 87 88 63 52 48 51 44 39 37 33 32 29 28 27 28 30 33 36 36 47 52 48 49 42 41
100 100 100 100 100 100 99 78 81 66 55 66 69 69 68 71 67 67 95 94 80 77 84 70 59 51 65 60 59 54 45 41 37 32 34 38 36 34 34 37 38 39 45 39 36 30 34
100 100 100 100 100 100 95 100 92 98 94 92 97 94 94 92 87 86 77 68 72 68 55 48 50 50 53 48 51 53 56 54 44 45 42 41 40 46 46 41 38 38 35 32 31 30 32
100 99 93 90 90 83 85 79 92 95 98 93 94 100 100 91 84 84 72 61 58 54 46 52 57 58 51 50 45 43 48 56 64 67 60 51 49 47 52 52 42 35 32 31 33 31 30
100 100 100 93 82 92 99 96 82 79 83 91 96 100 100 100 87 85 79 86 80 69 63 67 73 81 79 78 67 56 50 55 65 66 68 72 63 63 57 54 55 50 46 46 43 39 37
100 100 100 100 99 82 87 86 76 84 82 90 100 100 100 100 94 86 81 97 100 98 97 99 100 100 91 87 90 86 77 75 77 76 78 72 74 72 72 74 72 64 61 62 56 58 58
95 100 100 100 100 95 90 73 79 86 89 82 94 100 100 100 96 98 98 93 100 100 98 100 100 97 98 100 98 88 80 86 96 87 85 84 83 70 72 75 78 82 79 77 72 71 65
100 98 95 99 100 100 100 100 100 81 83 71 88 100 100 100 100 100 96 85 94 82 81 85 81 81 86 81 74 57 59 69 71 64 55 56 64 83 94 87 96 92 90 87 74 72 62
100 97 100 100 83 71 76 97 85 78 70 67 78 82 96 97 92 82 76 70 72 68 62 56 60 56 68 70 57 52 66 85 88 82 81 88 80 90 92 100 100 100 100 99 100 75 62
100 90 100 100 100 100 95 86 100 94 69 55 80 78 77 73 77 79 88 80 67 64 49 46 53 44 43 49 51 48 53 60 65 75 89 92 76 79 88 85 89 96 99 100 84 78 77
100 91 82 75 79 100 100 100 100 100 82 59 52 63 88 91 71 65 61 66 62 66 49 45 46 54 41 29 32 34 37 44 58 68 65 68 56 61 66 61 77 80 100 100 83 86 85
100 99 96 100 100 100 100 100 100 100 88 87 72 60 61 50 64 68 63 55 62 64 56 63 52 34 30 38 32 35 49 61 71 77 80 74 63 61 52 76 84 96 91 87 85 89 85
100 100 100 100 97 100 100 100 100 100 100 85 88 100 98 96 93 87 93 93 88 75 59 46 49 63 82 88 93 97 100 100 93 88 84 60 62 88 93 92 92 88 88 94 99 89 93
100 100 100 100 100 99 100 100 100 100 97 86 100 100 100 100 100 100 100 100 92 95 100 100 100 100 100 100 100 100 98 96 92 92 90 96 99 99 94 98 89 78 65 61 62 63 56
100 100 100 100 100 100 100 100 100 100 100 84 100 100 97 98 90 89 86 80 96 100 100 100 100 100 100 100 100 100 100 100 100 99 89 75 67 63 56 60 56 46 53 49 48 53 54
100 100 100 100 100 100 100 100 100 96 93 88 92 94 90 97 80 82 95 100 100 100 100 100 100 100 100 100 100 97 94 87 72 64 54 53 62 60 50 49 53 50 49 46 43 42 36
100 100 97 100 100 100 100 100 100 100 100 100 100 100 100 100 100 100 100 100 100 100 100 100 100 100 98 88 76 66 58 54 58 64 62 61 57 48 47 46 39 34 31 35 40 46 46
100 100 100 100 100 100 100 100 100 100 100 100 100 100 100 100 100 100 100 100 100 100 100 100 91 86 80 71 63 59 59 57 52 56 60 57 50 46 38 32 24 26 34 34 33 38 38
94 92 100 100 100 100 100 100 100 100 100 100 100 100 100 100 100 100 100 100 100 98 87 79 72 68 70 66 56 55 52 50 49 50 50 46 40 33 32 31 27 30 32 31 28 33 32
100 100 100 100 100 100 100 100 100 100 100 92 100 100 100 100 100 100 99 100 93 80 76 80 77 69 66 67 60 57 55 54 53 48 40 36 33 40 43 41 34 36 32 30 32 32 33
100 100 100 100 100 100 100 100 100 100 100 100 100 100 100 99 100 100 100 97 98 92 91 86 77 69 65 60 60 62 59 51 48 45 53 47 43 42 39 36 30 29 30 33 38 39 48
100 100 100 100 100 100 100 100 100 100 100 100 100 100 100 100 100 100 100 100 98 99 93 84 76 74 74 70 65 60 57 55 49 45 57 56 62 50 46 38 37 36 42 48 58 64 76
Wind_Speed
32 34 30 30 28 27 25 21 19 21 17 14 12 14 15 20 21 23 24 23 23 24 27 28 24 20 21 20 21 23 22 22 22 23 23 25 18 10 10 10 11 14 17 19 19 20 20
35 30 30 33 31 31 31 27 23 24 24 21 21 20 22 22 24 25 29 29 23 23 26 28 26 22 21 20 19 20 21 18 17 19 17 16 18 19 15 11 13 15 16 20 24 25 27
35 33 32 34 34 31 34 32 30 28 28 25 25 24 26 26 26 27 29 32 31 27 27 27 28 24 21 22 20 20 19 19 16 16 16 14 12 13 10 13 17 13 12 19 23 25 27
37 36 33 32 36 35 34 34 35 33 32 30 28 28 28 29 29 32 33 33 32 33 31 30 29 28 23 21 23 22 22 19 19 19 18 15 14 13 9 8 9 12 12 13 15 15 22
41 41 38 33 32 35 38 35 34 35 36 35 35 34 33 35 36 35 37 38 37 35 34 34 30 31 27 25 23 24 24 23 21 20 21 20 18 15 18 16 16 16 19 20 18 19 18
41 42 43 39 35 37 38 36 35 34 36 38 39 39 39 39 38 38 39 41 40 37 35 36 34 34 30 29 29 28 27 25 26 25 24 24 25 24 23 20 22 23 25 27 29 30 27
40 40 41 45 44 40 39 38 39 39 38 39 39 41 42 41 41 42 44 44 45 42 36 35 36 37 33 32 33 34 30 29 28 28 30 29 31 31 29 28 28 31 30 30 34 35 36
44 41 39 42 45 48 46 45 44 44 43 43 44 44 44 44 45 46 46 46 44 42 38 34 37 39 37 37 37 36 35 33 32 32 34 33 34 36 37 35 35 35 37 39 39 39 39
48 47 43 39 39 42 47 49 49 48 47 47 45 45 45 45 47 46 45 42 38 35 36 41 44 43 40 39 39 38 38 38 35 35 36 38 41 41 42 43 44 43 43 44 44 44 44
53 52 50 49 47 46 45 44 46 49 48 47 47 47 47 48 48 47 46 46 43 44 47 45 43 41 41 43 42 41 41 42 40 41 42 42 45 47 48 50 49 50 50 49 51 51 50
56 57 56 54 54 53 49 48 48 47 48 49 49 49 49 51 51 49 49 49 49 50 50 47 47 48 50 51 49 48 46 45 46 47 48 46 49 50 53 54 54 54 55 56 56 54 51
63 61 61 61 58 55 55 53 51 49 48 48 47 47 48 50 51 51 51 51 52 53 51 51 52 54 54 54 55 52 51 50 52 53 53 55 55 56 59 62 61 60 62 63 62 61 57
70 67 66 64 62 60 59 59 57 53 53 51 50 50 50 53 55 55 53 52 54 55 55 56 57 57 56 55 54 54 54 54 56 58 60 60 63 66 68 69 69 70 72 72 67 67 65
72 74 72 69 67 66 65 65 63 61 59 55 56 55 55 57 59 59 61 59 60 60 59 57 56 56 57 58 57 56 58 61 62 64 66 68 70 75 77 79 80 80 79 82 81 76 72
76 75 73 73 72 69 69 69 68 68 64 61 58 58 59 60 62 63 65 64 62 61 62 62 61 59 61 63 64 67 68 69 71 74 75 76 78 79 83 87 88 88 91 92 93 91 86
84 80 78 74 76 77 75 75 74 72 71 67 65 66 65 66 67 68 69 67 67 66 66 66 67 68 69 71 74 75 74 75 78 82 84 84 83 87 90 93 97 98 99 100 101 101 94
88 82 80 78 78 79 77 77 77 71 69 69 71 72 73 71 72 71 70 70 71 71 72 72 73 73 76 78 81 81 81 84 87 89 91 92 92 94 98 102 105 104 103 103 106 102 101
89 89 80 83 81 80 80 82 79 76 77 74 73 75 77 77 77 77 76 75 77 78 78 79 81 82 82 83 83 84 89 92 93 97 99 102 100 102 103 103 103 104 102 101 100 100 100
89 89 78 78 81 83 83 85 85 82 85 83 79 81 83 84 83 80 80 79 80 83 83 84 85 88 86 89 90 92 96 98 101 104 104 106 105 104 100 97 96 94 93 97 101 101 96
88 89 82 80 81 85 86 87 87 87 86 83 79 77 80 80 82 81 80 82 84 86 87 87 89 91 92 94 98 97 100 102 103 102 102 104 101 97 93 93 90 88 89 95 99 95 99
90 89 88 84 83 86 87 86 86 85 86 83 77 78 81 79 82 83 83 85 87 85 84 89 93 95 99 103 104 102 97 99 98 98 94 93 92 92 90 91 92 90 87 94 101 101 101
89 85 83 83 86 81 82 80 83 83 83 81 77 81 85 87 89 90 90 90 90 88 92 99 100 102 104 100 98 96 92 89 88 90 95 96 95 97 93 98 100 96 96 107 106 105 106
87 89 86 86 85 86 85 83 82 82 81 83 83 86 86 89 90 90 91 93 96 97 100 103 103 101 98 94 91 93 95 96 98 97 101 102 105 108 106 105 107 103 106 106 104 106 109
93 92 91 91 86 87 85 84 81 81 81 79 86 86 90 92 91 93 95 97 100 106 110 103 103 103 102 101 100 100 99 99 101 102 106 109 113 116 111 108 101 101 102 100 101 102 102
97 90 86 88 85 87 87 85 82 84 85 92 94 93 92 92 93 96 100 104 105 101 99 104 102 98 99 98 97 98 100 101 105 107 108 111 115 116 113 112 102 93 94 93 86 82 88
91 82 82 82 84 90 89 87 92 94 99 95 91 92 89 90 93 94 96 96 97 93 95 97 96 98 99 102 103 105 108 109 109 109 107 105 108 107 101 100 91 84 84 84 82 77 79
83 84 85 85 88 89 90 93 95 95 91 95 90 91 87 85 88 85 90 91 93 95 95 95 98 101 105 106 110 109 106 105 104 104 107 105 96 90 90 92 84 82 81 79 76 74 74
83 78 78 81 86 89 94 91 86 88 90 88 91 89 86 82 85 86 88 90 93 98 98 98 101 103 105 105 106 102 100 100 100 102 96 94 91 87 84 84 80 77 75 74 73 72 71
94 97 96 93 93 91 85 83 86 86 85 89 85 84 83 84 85 89 91 90 91 93 95 97 100 99 100 100 100 101 99 99 101 95 89 88 88 88 83 81 81 78 73 70 71 71 70
Wind_Direction
259 259 262 261 256 257 267 263 261 261 260 272 273 292 309 320 326 332 332 340 346 351 357 3 356 351 358 12 6 11 11 13 19 21 24 26 22 334 310 293 273 266 268 276 272 253 239
260 257 257 256 253 255 258 262 254 259 257 266 274 285 295 303 311 322 327 333 334 340 345 351 356 348 346 352 0 360 1 3 3 10 15 24 24 22 20 340 301 283 275 270 267 269 270
258 258 265 257 252 254 255 260 260 260 263 266 271 281 289 295 300 308 315 325 328 325 332 339 347 344 339 338 344 350 350 351 352 353 344 356 12 17 11 13 12 5 323 285 274 271 270
259 257 261 270 250 253 257 257 259 262 265 269 272 278 285 290 292 300 305 313 318 318 318 326 333 336 333 332 336 336 337 341 340 337 336 340 334 332 335 338 326 335 336 334 329 315 287
259 258 257 262 261 253 253 259 263 261 266 269 272 277 279 283 289 294 301 306 309 309 309 313 319 326 325 319 323 328 324 323 322 330 330 322 319 314 311 314 308 311 308 308 312 309 307
266 260 257 258 260 255 255 253 258 263 266 269 271 273 278 282 287 293 297 302 305 305 303 305 309 317 314 315 310 314 315 311 311 313 318 324 316 310 309 302 299 297 299 302 307 310 305
262 264 259 257 259 258 256 256 258 261 264 268 272 275 278 282 286 290 294 297 299 302 298 297 300 309 306 307 306 306 307 305 305 307 306 308 312 311 305 304 300 299 297 296 300 303 306
258 259 264 261 257 259 259 261 262 261 262 265 268 272 275 278 283 285 289 293 296 295 294 289 297 302 300 304 305 305 303 301 300 302 302 301 303 306 306 300 298 296 296 294 293 295 297
256 256 255 258 260 260 256 260 261 262 264 266 271 274 276 278 280 284 287 287 290 291 290 291 293 296 296 299 303 302 299 297 297 300 299 298 298 302 304 301 298 297 294 292 292 294 293
255 254 254 254 257 259 262 261 262 262 264 267 271 275 277 279 281 283 285 287 285 287 289 291 294 298 297 298 299 301 297 296 295 301 299 295 298 297 301 300 297 293 292 291 291 292 293
254 254 255 255 257 260 259 259 260 263 266 269 271 274 277 280 282 283 284 285 287 289 291 295 297 298 300 300 298 298 299 295 293 296 297 296 296 296 294 295 294 290 291 290 294 290 298
253 255 255 257 258 259 260 262 265 267 269 269 270 275 277 279 281 282 284 287 290 293 294 294 296 296 296 297 298 296 296 295 293 294 296 295 297 295 294 295 294 291 292 292 293 292 295
254 253 255 255 257 259 260 262 264 266 268 270 273 274 275 277 278 279 281 282 285 288 289 290 290 291 292 293 293 292 292 293 293 295 297 299 298 297 296 295 294 293 292 291 293 293 290
256 256 254 255 256 258 260 263 265 267 268 270 272 273 276 277 279 281 282 280 283 286 287 286 286 287 288 289 292 292 292 292 292 294 294 295 297 298 298 297 297 295 293 293 294 292 291
252 255 256 257 256 256 259 263 263 265 266 269 271 273 273 276 278 280 281 282 283 285 285 283 284 286 287 287 289 292 291 291 293 296 296 295 297 297 296 297 297 296 295 295 295 294 295
251 254 256 260 262 262 259 261 266 267 267 269 271 272 274 276 277 279 279 281 283 285 286 287 288 290 290 290 291 292 291 292 293 295 296 295 297 297 295 294 293 294 294 293 294 296 295
255 250 253 258 262 262 262 262 266 266 267 270 272 274 275 275 277 279 281 282 283 285 287 289 291 292 294 293 295 293 292 295 295 294 294 294 296 295 294 294 293 293 293 293 295 294 292
257 252 250 257 260 260 261 263 265 264 268 270 272 273 274 276 276 278 280 281 283 287 289 293 292 294 295 296 295 295 295 295 296 295 294 293 295 294 295 295 293 294 294 291 292 291 291
257 254 255 254 255 257 259 261 263 265 268 273 275 274 275 277 279 281 282 282 285 288 290 290 290 291 293 296 297 296 297 296 295 294 294 295 297 296 295 292 292 293 291 290 289 288 290
251 250 251 253 254 257 260 263 264 265 270 277 277 275 276 277 279 281 284 284 285 287 289 291 293 293 293 292 292 292 290 291 293 295 295 297 296 293 291 291 289 290 290 289 288 288 284
251 249 251 255 257 258 261 262 262 266 272 274 274 274 275 279 279 280 281 285 288 290 289 287 288 288 287 290 293 294 293 293 294 295 294 292 291 290 292 291 291 292 293 292 290 288 287
247 250 253 258 257 257 260 263 265 267 269 271 271 273 274 276 279 283 283 287 287 285 283 284 289 290 290 291 293 292 291 290 291 292 293 292 290 289 291 291 291 294 290 291 291 287 286
245 247 254 254 258 258 260 265 267 270 269 274 275 274 275 278 278 282 282 283 283 283 282 284 286 289 289 288 289 291 292 291 293 293 293 293 293 293 296 295 293 295 291 289 287 284 285
245 253 254 253 252 257 258 265 267 269 271 272 275 273 274 278 281 280 281 282 280 282 285 288 288 288 288 289 291 295 296 295 296 296 296 295 294 296 297 296 295 295 291 286 283 282 284
248 252 250 252 254 255 259 262 262 260 264 273 275 275 277 278 278 277 278 279 281 283 283 286 290 293 293 293 294 295 295 297 298 298 296 296 297 297 298 297 298 294 290 288 287 286 285
253 251 249 250 253 253 256 254 257 261 264 274 274 275 277 276 276 278 281 283 284 286 287 288 290 290 292 293 294 296 298 299 299 299 297 296 298 300 298 295 296 293 292 293 292 290 289
251 247 245 253 252 251 254 255 262 270 272 275 273 275 276 279 279 281 283 284 286 287 288 289 291 294 294 295 297 298 298 300 300 300 301 301 302 298 295 296 298 297 297 296 293 291 289
241 241 245 248 252 254 257 263 264 270 273 271 273 274 277 279 278 281 282 284 285 287 290 291 294 294 295 296 298 298 300 302 303 305 306 305 302 299 298 297 297 295 293 292 292 290 290
238 248 254 255 256 256 258 260 265 266 266 269 268 270 273 274 274 281 284 285 288 289 292 293 294 294 295 295 297 300 302 303 305 306 306 304 304 302 302 302 298 296 295 293 292 291 290